CW0288 Weather Reports


Display with metric or nautical units.
time (UTC)temp
F
wind
direction
speed
MPH
gust
MPH
rain 1hr
in
rain 24hr
in
rain mn
in
humidity
%
barometer
mb
20210805150051 71 207 8.0 11.0 0.00 0.05 0.05 84 1012.8
20210805145537 71 205 5.0 10.0 0.00 0.05 0.05 83 1012.8
20210805145045 71 207 4.0 10.0 0.00 0.05 0.05 85 1012.9
20210805144550 70 208 6.0 10.0 0.00 0.05 0.05 85 1012.9
20210805144035 70 190 5.0 13.0 0.00 0.05 0.05 86 1012.9
20210805143541 70 234 6.0 13.0 0.00 0.05 0.05 86 1012.9
20210805143046 70 208 6.0 12.0 0.00 0.05 0.05 87 1012.9
20210805142552 70 198 7.0 13.0 0.00 0.05 0.05 86 1012.9
20210805142039 70 196 9.0 13.0 0.00 0.05 0.05 86 1012.9
20210805141549 70 188 8.0 13.0 0.00 0.05 0.05 87 1013.0
20210805141035 69 197 10.0 13.0 0.00 0.05 0.05 87 1012.9
20210805140541 69 245 5.0 13.0 0.00 0.05 0.05 87 1012.9
20210805140047 68 210 4.0 12.0 0.00 0.05 0.05 88 1012.9
20210805135635 68 180 7.0 11.0 0.00 0.05 0.05 88 1012.6
20210805135037 68 183 6.0 10.0 0.00 0.05 0.05 88 1013.0
20210805134544 68 202 6.0 10.0 0.00 0.05 0.05 88 1013.1
20210805134050 67 193 5.0 8.0 0.00 0.05 0.05 89 1013.1
20210805133535 67 209 5.0 10.0 0.00 0.05 0.05 90 1013.2
20210805133044 67 191 7.0 9.0 0.00 0.05 0.05 90 1013.3
20210805132550 66 164 6.0 9.0 0.00 0.05 0.05 90 1013.3
20210805132040 66 210 7.0 9.0 0.00 0.05 0.05 90 1013.2
20210805131547 67 196 6.0 9.0 0.00 0.05 0.05 89 1013.3
20210805131034 67 188 4.0 9.0 0.00 0.05 0.05 90 1013.2
20210805130540 67 196 7.0 10.0 0.00 0.05 0.05 90 1013.2
20210805130046 67 184 5.0 11.0 0.00 0.05 0.05 91 1013.2
20210805125533 66 179 8.0 11.0 0.00 0.05 0.05 90 1013.3
20210805125039 66 174 5.0 10.0 0.00 0.05 0.05 91 1013.2
20210805124545 66 166 4.0 10.0 0.00 0.05 0.05 92 1013.3
20210805124032 65 188 6.0 10.0 0.00 0.05 0.05 92 1013.2
20210805123538 65 184 6.0 10.0 0.00 0.05 0.05 93 1013.3
20210805123047 65 166 5.0 10.0 0.00 0.05 0.05 93 1013.2
20210805122534 64 179 5.0 9.0 0.00 0.05 0.05 93 1013.3
20210805122040 64 173 5.0 10.0 0.00 0.05 0.05 93 1013.3
20210805121547 64 213 5.0 10.0 0.00 0.05 0.05 93 1013.3
20210805121034 64 170 5.0 7.0 0.00 0.05 0.05 93 1013.3
20210805120541 64 190 4.0 6.0 0.00 0.05 0.05 94 1013.4
20210805120047 64 179 4.0 6.0 0.00 0.05 0.05 94 1013.3
20210805115532 64 173 5.0 7.0 0.00 0.05 0.05 94 1013.3
20210805115038 64 177 4.0 7.0 0.00 0.05 0.05 94 1013.4
20210805114545 64 178 4.0 6.0 0.00 0.05 0.05 94 1013.4
20210805114035 63 199 4.0 7.0 0.00 0.05 0.05 94 1013.4
20210805113543 63 178 4.0 7.0 0.00 0.05 0.05 94 1013.3
20210805113050 63 178 4.0 6.0 0.00 0.05 0.05 94 1013.3
20210805112534 63 161 4.0 7.0 0.00 0.05 0.05 94 1013.2
20210805112042 63 180 4.0 9.0 0.00 0.05 0.05 94 1013.3
20210805111549 63 167 5.0 9.0 0.00 0.05 0.05 94 1013.2
20210805111036 63 169 6.0 8.0 0.00 0.05 0.05 94 1013.3
20210805110543 64 164 5.0 7.0 0.00 0.05 0.05 94 1013.2
20210805110047 64 171 5.0 7.0 0.00 0.05 0.05 95 1013.3
20210805105538 64 173 5.0 7.0 0.00 0.05 0.05 95 1013.3
20210805105043 63 191 5.0 8.0 0.00 0.05 0.05 95 1013.2
20210805104550 63 186 5.0 9.0 0.00 0.05 0.05 95 1013.2
20210805104038 63 164 6.0 10.0 0.00 0.05 0.05 95 1013.1
20210805103544 63 148 7.0 10.0 0.00 0.05 0.05 95 1013.2
20210805103050 63 144 7.0 8.0 0.00 0.05 0.05 95 1013.2
20210805102536 63 154 4.0 6.0 0.00 0.05 0.05 95 1013.3
20210805102043 63 146 4.0 5.0 0.00 0.05 0.05 95 1013.3
20210805101549 64 161 3.0 4.0 0.00 0.05 0.05 95 1013.3
20210805101035 64 138 2.0 4.0 0.01 0.05 0.05 95 1013.3
20210805100547 64 122 3.0 4.0 0.01 0.05 0.05 95 1013.3
20210805100031 64 138 0.0 2.0 0.01 0.05 0.05 95 1013.5
20210805095537 64 238 0.0 1.0 0.01 0.05 0.05 95 1013.6
20210805095045 64 238 0.0 2.0 0.01 0.05 0.05 95 1013.6
20210805094549 64 238 0.0 3.0 0.01 0.05 0.05 95 1013.7
20210805094036 64 227 1.0 4.0 0.02 0.05 0.05 94 1013.7
20210805093624 64 227 1.0 6.0 0.02 0.05 0.05 94 1013.3
20210805093047 64 207 3.0 7.0 0.03 0.05 0.05 93 1013.7
20210805092532 64 186 4.0 8.0 0.04 0.05 0.05 93 1013.7
20210805092040 64 169 4.0 8.0 0.05 0.05 0.05 93 1013.7
20210805091545 64 166 5.0 8.0 0.05 0.05 0.05 93 1013.8
20210805091035 64 173 5.0 8.0 0.04 0.04 0.04 93 1013.9
20210805090542 64 164 5.0 8.0 0.04 0.04 0.04 93 1013.9
20210805090049 64 173 4.0 8.0 0.04 0.04 0.04 93 1014.0
20210805085535 64 168 3.0 7.0 0.04 0.04 0.04 93 1014.0
20210805085041 64 166 4.0 7.0 0.04 0.04 0.04 93 1014.0
20210805084547 64 159 4.0 5.0 0.04 0.04 0.04 93 1014.0
20210805084033 64 172 3.0 6.0 0.04 0.04 0.04 92 1014.2
20210805083541 64 178 3.0 7.0 0.03 0.03 0.03 92 1014.2
20210805083048 64 198 4.0 7.0 0.02 0.02 0.02 92 1014.2
20210805082533 65 183 3.0 7.0 0.01 0.01 0.01 91 1014.3
20210805082045 65 199 5.0 8.0 0.00 0.00 0.00 90 1014.3
20210805081532 65 201 6.0 8.0 0.00 0.00 0.00 89 1014.4
20210805081037 66 199 6.0 8.0 0.00 0.00 0.00 89 1014.2
20210805080544 66 196 5.0 7.0 0.00 0.00 0.00 88 1014.3
20210805080030 66 183 5.0 7.0 0.00 0.00 0.00 88 1014.3
20210805075537 65 175 4.0 6.0 0.00 0.00 0.00 89 1014.3
20210805075042 65 174 4.0 5.0 0.00 0.00 0.00 89 1014.4
20210805074547 65 168 4.0 5.0 0.00 0.00 0.00 89 1014.4
20210805074033 65 173 3.0 5.0 0.00 0.00 0.00 89 1014.5
20210805073539 65 188 3.0 5.0 0.00 0.00 0.00 89 1014.5
20210805073050 65 177 4.0 6.0 0.00 0.00 0.00 89 1014.6
20210805072536 65 165 3.0 6.0 0.00 0.00 0.00 88 1014.6
20210805072043 65 194 4.0 6.0 0.00 0.00 0.00 88 1014.7
20210805071550 65 198 4.0 6.0 0.00 0.00 0.00 88 1014.8
20210805071037 66 202 5.0 6.0 0.00 0.00 0.00 88 1014.8
20210805070544 66 205 4.0 7.0 0.00 0.00 0.00 86 1014.8
20210805070031 66 189 4.0 7.0 0.00 0.00 0.00 84 1014.8
20210805065538 67 204 4.0 5.0 0.00 0.00 0.00 83 1014.8
20210805065045 67 196 3.0 5.0 0.00 0.00 0.00 83 1014.8
20210805064536 67 193 3.0 6.0 0.00 0.00 0.00 82 1014.8
20210805064043 67 182 3.0 6.0 0.00 0.00 0.00 82 1014.8
20210805063549 67 165 4.0 6.0 0.00 0.00 0.00 82 1014.8
20210805063036 67 169 3.0 5.0 0.00 0.00 0.00 81 1014.9
20210805062543 67 174 3.0 5.0 0.00 0.00 0.00 81 1014.9
20210805062030 67 173 3.0 5.0 0.00 0.00 0.00 81 1014.9
20210805061537 67 171 3.0 6.0 0.00 0.00 0.00 81 1015.0
20210805061045 67 175 3.0 7.0 0.00 0.00 0.00 81 1015.0
20210805060532 67 177 3.0 7.0 0.00 0.00 0.00 81 1015.0
20210805060039 67 181 5.0 6.0 0.00 0.00 0.00 81 1015.0
20210805055549 67 171 4.0 6.0 0.00 0.00 0.00 81 1015.1
20210805055035 67 170 4.0 6.0 0.00 0.00 0.00 80 1015.1
20210805054539 67 190 3.0 6.0 0.00 0.00 0.00 80 1015.1
20210805054047 67 182 3.0 6.0 0.00 0.00 0.00 80 1015.1
20210805053533 67 186 4.0 6.0 0.00 0.00 0.00 80 1015.1
20210805053041 67 188 4.0 6.0 0.00 0.00 0.00 81 1015.2
20210805052548 67 181 3.0 6.0 0.00 0.00 0.00 81 1015.2
20210805052034 67 166 3.0 7.0 0.00 0.00 0.00 80 1015.2
20210805051621 67 173 4.0 7.0 0.00 0.00 0.00 80 1014.8
20210805051042 67 182 4.0 6.0 0.00 0.00 0.00 80 1015.3
20210805050529 68 190 3.0 8.0 0.00 0.00 0.00 79 1015.3
20210805050039 68 190 4.0 8.0 0.00 0.00 0.00 79 1015.4
20210805045547 68 188 3.0 7.0 0.00 0.00 0.00 78 1015.4
20210805045033 68 197 3.0 7.0 0.00 0.00 0.00 78 1015.5
20210805044540 67 176 4.0 8.0 0.00 0.00 0.00 79 1015.5
20210805044045 67 177 6.0 8.0 0.00 0.00 0.00 79 1015.5
20210805043531 67 173 5.0 8.0 0.00 0.00 0.00 79 1015.4
20210805043040 67 170 5.0 8.0 0.00 0.00 0.00 79 1015.5
20210805042546 67 176 4.0 7.0 0.00 0.00 0.00 78 1015.6
20210805042033 67 161 4.0 7.0 0.00 0.00 0.00 78 1015.6
20210805041539 67 182 4.0 7.0 0.00 0.00 0.00 78 1015.7
20210805041049 68 175 5.0 7.0 0.00 0.00 0.00 77 1015.7
20210805040536 68 171 5.0 6.0 0.00 0.00 0.00 77 1015.8
20210805040044 68 165 4.0 6.0 0.00 0.00 0.00 77 1015.8
20210805035530 68 163 5.0 7.0 0.00 0.00 0.00 77 1015.8
20210805035035 68 163 4.0 7.0 0.00 0.00 0.00 77 1015.9
20210805034542 68 169 4.0 7.0 0.00 0.00 0.00 76 1015.9
20210805034048 68 163 4.0 7.0 0.00 0.00 0.00 76 1016.0
20210805033534 68 173 5.0 7.0 0.00 0.00 0.00 76 1016.0
20210805033041 68 172 4.0 8.0 0.00 0.00 0.00 75 1015.9
20210805032533 68 170 4.0 8.0 0.00 0.00 0.00 75 1016.0
20210805032039 68 163 5.0 8.0 0.00 0.00 0.00 76 1016.0
20210805031544 68 169 5.0 9.0 0.00 0.00 0.00 76 1016.0
20210805031029 68 171 5.0 9.0 0.00 0.00 0.00 76 1016.0
20210805030536 68 156 6.0 7.0 0.00 0.00 0.00 75 1016.0
20210805030042 68 153 6.0 7.0 0.00 0.00 0.00 75 1015.9
20210805025548 68 156 5.0 6.0 0.00 0.00 0.00 75 1015.9
20210805025034 69 160 4.0 6.0 0.00 0.00 0.00 74 1015.9
20210805024540 69 163 3.0 5.0 0.00 0.00 0.00 74 1015.9
20210805024046 69 159 3.0 7.0 0.00 0.00 0.00 74 1015.9
20210805023535 69 161 5.0 7.0 0.00 0.00 0.00 74 1015.9
20210805023043 69 153 5.0 6.0 0.00 0.00 0.00 74 1015.9
20210805022530 69 157 4.0 5.0 0.00 0.00 0.00 74 1016.0
20210805022037 69 159 4.0 5.0 0.00 0.00 0.00 74 1015.9
20210805021544 69 177 4.0 5.0 0.00 0.00 0.00 74 1015.9
20210805021030 69 174 4.0 7.0 0.00 0.00 0.00 73 1015.9
20210805020536 69 167 3.0 7.0 0.00 0.00 0.00 72 1015.9
20210805020043 69 169 3.0 7.0 0.00 0.00 0.00 72 1015.9
20210805015531 69 175 5.0 6.0 0.00 0.00 0.00 72 1015.9
20210805015038 69 194 3.0 6.0 0.00 0.00 0.00 72 1015.9
20210805014548 70 165 3.0 5.0 0.00 0.00 0.00 72 1015.9
20210805014035 70 177 3.0 6.0 0.00 0.00 0.00 70 1015.9
20210805013539 71 189 4.0 6.0 0.00 0.00 0.00 68 1016.0
20210805013045 71 194 4.0 6.0 0.00 0.00 0.00 68 1016.0
20210805012530 71 205 3.0 6.0 0.00 0.00 0.00 70 1016.1
20210805012037 71 224 3.0 8.0 0.00 0.00 0.00 68 1016.1
20210805011545 71 165 4.0 8.0 0.00 0.00 0.00 68 1015.9
20210805011030 71 211 5.0 10.0 0.00 0.00 0.00 68 1016.0
20210805010538 71 184 4.0 10.0 0.00 0.00 0.00 67 1015.9
20210805010043 72 178 5.0 8.0 0.00 0.00 0.00 66 1016.0
20210805005533 72 191 5.0 8.0 0.00 0.00 0.00 66 1016.0
20210805005039 72 194 5.0 10.0 0.00 0.00 0.00 65 1016.0
20210805004545 72 194 5.0 10.0 0.00 0.00 0.00 65 1016.1
20210805004032 73 176 5.0 11.0 0.00 0.00 0.00 64 1016.1
20210805003538 73 202 8.0 11.0 0.00 0.00 0.00 63 1016.1
20210805003043 73 190 7.0 10.0 0.00 0.00 0.00 62 1016.1
20210805002529 73 194 7.0 10.0 0.00 0.00 0.00 62 1016.2
20210805002035 74 192 5.0 9.0 0.00 0.00 0.00 62 1016.2
20210805001542 74 192 7.0 10.0 0.00 0.00 0.00 61 1016.2
20210805001034 74 186 7.0 12.0 0.00 0.00 0.00 61 1016.3
20210805000539 74 200 7.0 12.0 0.00 0.00 0.00 60 1016.3
20210805000047 74 202 6.0 12.0 0.00 0.00 0.00 61 1016.4
20210804235532 74 194 7.0 12.0 0.00 0.00 0.00 63 1016.5
20210804235038 75 182 7.0 11.0 0.00 0.00 0.00 63 1016.5
20210804234544 75 188 6.0 11.0 0.00 0.00 0.00 64 1016.5
20210804234030 75 190 6.0 11.0 0.00 0.00 0.00 64 1016.6
20210804233537 75 204 7.0 11.0 0.00 0.00 0.00 63 1016.6
20210804233043 75 202 7.0 10.0 0.00 0.00 0.00 63 1016.6
20210804232530 75 202 7.0 12.0 0.00 0.00 0.00 61 1016.6
20210804232040 75 213 7.0 13.0 0.00 0.00 0.00 61 1016.7
20210804231546 75 205 9.0 13.0 0.00 0.00 0.00 61 1016.7
20210804231034 76 188 7.0 11.0 0.00 0.00 0.00 60 1016.7
20210804230541 76 192 6.0 13.0 0.00 0.00 0.00 59 1016.6
20210804230049 76 222 7.0 13.0 0.00 0.00 0.00 59 1016.6
20210804225534 76 185 6.0 11.0 0.00 0.00 0.00 61 1016.7
20210804225042 76 209 7.0 11.0 0.00 0.00 0.00 60 1016.7
20210804224546 76 198 5.0 12.0 0.00 0.00 0.00 62 1016.7
20210804224031 76 198 8.0 12.0 0.00 0.00 0.00 62 1016.7
20210804223539 76 288 5.0 11.0 0.00 0.00 0.00 62 1016.7
20210804223029 76 194 5.0 12.0 0.00 0.00 0.00 64 1016.7
20210804222536 77 182 7.0 16.0 0.00 0.00 0.00 61 1016.7
20210804222043 78 207 12.0 16.0 0.00 0.00 0.00 59 1016.8
20210804221528 78 212 4.0 13.0 0.00 0.00 0.00 59 1016.8
20210804221034 78 202 7.0 14.0 0.00 0.00 0.00 59 1016.8
20210804220541 78 196 8.0 14.0 0.00 0.00 0.00 56 1016.8
20210804220028 78 202 9.0 14.0 0.00 0.00 0.00 58 1016.8
20210804215534 77 192 6.0 14.0 0.00 0.00 0.00 58 1016.8
20210804215040 78 253 7.0 14.0 0.00 0.00 0.00 57 1016.8
20210804214530 78 202 4.0 14.0 0.00 0.00 0.00 59 1016.9
20210804214037 77 196 8.0 14.0 0.00 0.00 0.00 57 1016.9
20210804213544 77 232 7.0 13.0 0.00 0.00 0.00 58 1016.9
20210804213030 77 244 4.0 13.0 0.00 0.00 0.00 58 1016.9
20210804212538 77 231 7.0 15.0 0.00 0.00 0.00 57 1016.9
20210804212045 77 185 11.0 15.0 0.00 0.00 0.00 55 1016.8
20210804211531 77 204 5.0 13.0 0.00 0.00 0.00 57 1016.9
20210804211037 77 218 8.0 13.0 0.00 0.00 0.00 55 1017.0
20210804210544 77 223 5.0 11.0 0.00 0.00 0.00 57 1017.0
20210804210031 77 238 4.0 9.0 0.00 0.00 0.00 58 1017.0
20210804205543 77 209 4.0 11.0 0.00 0.00 0.00 61 1017.0
20210804205028 77 205 5.0 11.0 0.00 0.00 0.00 60 1017.1
20210804204534 78 192 8.0 15.0 0.00 0.00 0.00 60 1017.1
20210804204041 78 207 5.0 16.0 0.00 0.00 0.00 62 1017.1
20210804203547 78 209 10.0 16.0 0.00 0.00 0.00 58 1017.2
20210804203034 78 198 8.0 13.0 0.00 0.00 0.00 56 1017.2
20210804202541 79 220 7.0 15.0 0.00 0.00 0.00 56 1017.2
20210804202027 78 227 6.0 15.0 0.00 0.00 0.00 59 1017.2
20210804201535 78 207 7.0 15.0 0.00 0.00 0.00 58 1017.3
20210804201040 78 195 8.0 15.0 0.00 0.00 0.00 58 1017.3
20210804200530 78 181 8.0 14.0 0.00 0.00 0.00 56 1017.3
20210804200038 79 202 7.0 15.0 0.00 0.00 0.00 57 1017.3
20210804195543 80 198 9.0 17.0 0.00 0.00 0.00 55 1017.3
20210804195030 78 215 11.0 17.0 0.00 0.00 0.00 57 1017.3
20210804194536 78 193 8.0 15.0 0.00 0.00 0.00 56 1017.3
20210804194043 79 219 9.0 15.0 0.00 0.00 0.00 56 1017.4
20210804193529 81 220 11.0 14.0 0.00 0.00 0.00 55 1017.4
20210804193037 81 217 10.0 18.0 0.00 0.00 0.00 52 1017.4
20210804192544 80 196 8.0 18.0 0.00 0.00 0.00 53 1017.4
20210804192031 80 236 2.0 13.0 0.00 0.00 0.00 59 1017.5
20210804191537 79 217 7.0 13.0 0.00 0.00 0.00 59 1017.6
20210804191044 78 170 4.0 12.0 0.00 0.00 0.00 64 1017.6
20210804190529 78 200 8.0 12.0 0.00 0.00 0.00 58 1017.6
20210804190037 78 172 3.0 10.0 0.00 0.00 0.00 60 1017.7
20210804185543 78 212 3.0 12.0 0.00 0.00 0.00 60 1017.7
20210804185029 78 179 6.0 14.0 0.00 0.00 0.00 60 1017.7
20210804184536 79 201 6.0 11.0 0.00 0.00 0.00 59 1017.9
20210804184043 78 203 7.0 10.0 0.00 0.00 0.00 58 1017.9
20210804183528 78 207 6.0 12.0 0.00 0.00 0.00 57 1017.9
20210804183037 79 232 8.0 12.0 0.00 0.00 0.00 59 1018.0
20210804182545 79 256 6.0 15.0 0.00 0.00 0.00 57 1018.0
20210804182032 78 199 8.0 15.0 0.00 0.00 0.00 57 1018.1
20210804181540 78 239 10.0 15.0 0.00 0.00 0.00 58 1018.0
20210804181046 77 223 8.0 15.0 0.00 0.00 0.00 56 1018.2
20210804180533 78 215 7.0 15.0 0.00 0.00 0.00 54 1018.1
20210804180040 79 214 10.0 15.0 0.00 0.00 0.00 52 1018.1
20210804175547 80 258 8.0 17.0 0.00 0.00 0.00 55 1018.2
20210804175033 80 186 8.0 17.0 0.00 0.00 0.00 56 1018.1
20210804174539 80 235 10.0 20.0 0.00 0.00 0.00 59 1018.2
20210804174030 78 252 10.0 20.0 0.00 0.00 0.00 59 1018.3
20210804173538 79 245 7.0 14.0 0.00 0.00 0.00 58 1018.2
20210804173045 79 223 9.0 14.0 0.00 0.00 0.00 68 1018.3
20210804172530 78 175 7.0 15.0 0.00 0.00 0.00 63 1018.3
20210804172036 77 309 8.0 15.0 0.00 0.00 0.00 62 1018.3
20210804171544 78 216 9.0 15.0 0.00 0.00 0.00 63 1018.5
20210804171030 78 215 12.0 16.0 0.00 0.00 0.00 59 1018.5
20210804170535 78 197 9.0 16.0 0.00 0.00 0.00 62 1018.5
20210804170040 78 241 8.0 16.0 0.00 0.00 0.00 63 1018.6
20210804165531 78 234 9.0 16.0 0.00 0.00 0.00 61 1018.5
20210804165038 79 271 8.0 15.0 0.00 0.00 0.00 63 1018.4
20210804164545 79 235 7.0 18.0 0.00 0.00 0.00 73 1018.6
20210804164032 79 205 12.0 18.0 0.00 0.00 0.00 62 1018.7
20210804163538 79 197 5.0 14.0 0.00 0.00 0.00 65 1018.6
20210804163045 78 272 5.0 15.0 0.00 0.00 0.00 61 1018.6
20210804162530 79 219 5.0 15.0 0.00 0.00 0.00 73 1018.6
20210804162037 78 242 9.0 13.0 0.00 0.00 0.00 70 1018.6
20210804161544 78 246 8.0 13.0 0.00 0.00 0.00 70 1018.5
20210804161029 77 220 7.0 12.0 0.00 0.00 0.00 71 1018.5
20210804160540 77 211 6.0 10.0 0.00 0.00 0.00 69 1018.6
20210804160026 76 217 5.0 12.0 0.00 0.00 0.00 72 1018.7
20210804155534 76 262 8.0 12.0 0.00 0.00 0.00 70 1018.7
20210804155039 76 206 5.0 10.0 0.00 0.00 0.00 71 1018.6
20210804154547 75 211 8.0 12.0 0.00 0.00 0.00 71 1018.6
20210804154032 75 237 8.0 12.0 0.00 0.00 0.00 73 1018.6
20210804153539 75 236 5.0 12.0 0.00 0.00 0.00 78 1018.5
20210804153043 75 240 6.0 12.0 0.00 0.00 0.00 73 1018.6
20210804152529 75 211 4.0 12.0 0.00 0.00 0.00 72 1018.6
20210804152036 75 226 6.0 10.0 0.00 0.00 0.00 72 1018.6
20210804151546 74 196 3.0 11.0 0.00 0.00 0.00 75 1018.5
20210804151030 73 208 7.0 11.0 0.00 0.00 0.00 75 1018.5
20210804150537 74 212 4.0 11.0 0.00 0.00 0.00 78 1018.4